Temperature
18 18 18 18 17 17 17 17 17 17 17 17 16 16 16 17 16 16 16 16 17 17 17 17 17 17 17 17 17 17 17 17 17 17 17 17 17 17 17 17 17 17 17
18 18 18 18 17 17 17 17 17 17 17 17 16 16 16 17 17 16 16 16 16 16 16 17 17 17 17 17 17 17 17 17 17 17 17 17 17 17 17 17 17 17 17
18 18 18 18 17 17 17 17 17 17 17 17 17 16 16 16 16 17 16 16 16 16 16 16 16 17 17 17 17 17 17 16 16 16 16 16 16 16 16 16 16 16 17
17 17 18 18 17 17 17 17 17 17 17 17 17 16 16 16 16 16 16 16 16 16 16 16 16 16 17 17 17 16 16 16 16 16 16 16 16 16 16 16 16 16 16
17 17 17 17 17 17 17 17 17 17 17 17 17 16 16 16 16 16 16 16 16 16 16 16 16 17 17 17 17 16 16 16 16 16 16 16 16 16 16 16 16 16 16
18 18 17 17 17 17 17 17 17 17 17 17 16 16 16 16 16 16 16 16 16 16 16 16 17 17 17 17 17 16 16 16 16 16 16 16 16 16 16 16 16 16 16
18 18 18 17 17 17 17 17 17 16 16 16 16 16 16 16 16 16 16 16 16 16 16 16 16 17 17 17 17 16 16 16 16 16 16 16 16 16 16 16 16 16 15
18 18 18 17 17 17 17 17 16 16 16 16 16 16 16 16 16 16 16 16 16 16 16 16 16 16 16 17 16 16 16 15 16 16 16 16 16 16 16 16 16 15 15
18 17 17 17 17 17 17 17 16 16 16 16 16 16 16 16 16 16 16 16 16 16 16 16 16 16 16 16 16 16 16 16 16 16 16 16 16 16 16 16 15 15 15
17 17 17 17 17 17 17 17 16 16 16 15 15 15 16 16 16 16 16 16 16 16 16 15 15 15 15 16 16 16 16 16 16 16 16 16 16 16 16 15 15 15 15
17 17 17 17 16 16 16 16 16 16 16 15 15 15 15 15 15 16 16 16 16 16 16 15 15 15 15 15 15 15 15 16 16 16 16 16 16 16 16 15 15 15 15
17 17 17 16 16 16 16 16 16 16 15 15 15 15 15 15 15 15 16 16 16 16 16 15 15 15 15 15 15 15 15 15 15 16 16 16 16 16 15 15 15 15 15
16 16 16 16 16 16 16 16 15 15 15 15 15 15 15 15 15 15 15 15 15 16 16 16 16 16 15 15 15 15 15 15 15 15 15 15 15 15 15 15 15 15 14
16 16 16 16 16 16 15 15 15 15 15 15 15 15 15 15 14 14 14 15 15 15 15 16 16 16 16 15 15 15 15 15 15 15 15 15 15 15 15 15 15 14 14
16 16 16 16 16 16 15 15 15 15 14 14 14 14 14 14 14 14 14 14 14 14 15 16 16 16 16 16 15 15 15 15 15 15 15 15 15 15 15 15 14 14 14
16 16 16 16 16 15 15 15 15 15 14 14 14 14 14 14 14 14 14 14 14 14 14 15 16 16 16 16 16 15 15 15 15 15 15 15 15 15 15 15 14 14 14
16 16 16 16 15 15 15 15 15 14 14 14 14 14 13 13 13 13 14 14 14 14 14 15 15 15 16 16 16 15 15 15 15 14 14 14 14 15 14 14 14 14 14
16 16 16 16 15 15 15 15 15 14 14 14 14 13 13 13 13 13 13 13 13 14 14 14 15 15 15 15 15 15 15 15 14 14 14 14 14 14 14 14 14 14 14
16 16 16 15 15 15 15 15 14 14 14 14 14 13 13 13 13 13 13 13 13 13 13 14 14 14 15 15 15 15 15 15 14 14 14 14 14 14 14 14 14 14 14
16 16 16 15 15 15 15 15 14 14 14 14 14 13 13 13 13 13 13 13 13 13 13 13 13 14 14 15 15 15 15 15 14 14 14 14 14 13 14 14 14 14 14
16 16 16 16 15 15 15 15 14 14 14 14 14 14 13 13 13 13 13 13 13 13 13 13 13 13 13 14 14 14 14 14 14 14 14 14 14 13 13 13 13 13 13
16 16 16 16 15 15 15 15 14 14 14 14 14 14 14 13 13 13 13 13 12 12 12 12 13 13 13 13 13 14 14 14 14 14 14 14 14 14 14 13 13 13 13
16 16 15 15 15 15 15 15 14 14 14 14 14 14 14 14 13 13 13 13 13 12 12 12 12 12 12 12 13 13 13 13 14 14 13 14 14 14 14 13 13 13 13
15 15 15 14 14 14 14 14 14 14 14 14 14 14 14 14 14 14 13 13 13 13 12 12 12 12 12 12 12 12 12 13 13 13 13 14 14 14 14 14 13 13 13
13 13 13 13 13 13 14 14 14 14 14 14 14 14 14 14 14 14 14 14 13 13 13 12 12 12 12 12 12 12 12 12 13 13 13 13 14 14 14 14 14 13 13
12 12 12 12 12 13 13 13 13 14 14 14 14 14 14 14 14 14 14 14 14 13 13 13 12 12 12 12 12 12 12 12 12 12 13 13 13 13 13 14 14 14 13
Wind_Speed
4 3 3 3 3 2 1 1 1 0 3 4 4 4 3 3 2 3 4 2 1 2 4 4 4 3 4 4 5 6 6 6 7 7 6 5 4 3 3 3 3 4 4
5 4 3 3 4 4 3 2 1 2 3 4 4 4 3 3 3 3 4 4 4 4 4 4 4 4 4 4 4 4 5 5 6 7 7 5 4 2 2 3 3 3 4
7 5 4 4 4 5 4 2 3 3 4 4 5 4 3 3 3 4 4 5 5 5 5 5 5 5 5 5 4 4 4 3 3 5 5 5 4 3 2 2 2 2 3
10 6 4 4 5 6 4 3 3 3 3 4 4 3 3 2 2 3 4 6 6 7 7 7 7 6 6 6 5 5 5 4 3 2 3 3 4 3 3 2 1 0 2
12 8 5 4 5 4 3 4 2 3 3 4 4 2 2 2 1 2 3 4 6 7 7 8 9 8 7 5 5 4 4 4 4 3 2 2 2 2 3 3 2 1 1
13 10 5 5 4 3 3 4 4 2 3 4 3 2 1 1 0 0 1 2 3 4 5 5 6 7 7 6 4 3 4 5 5 4 4 2 1 1 2 3 3 3 2
11 9 6 5 4 4 4 4 3 3 2 3 3 2 2 2 1 1 1 0 0 1 2 2 2 3 4 5 5 5 6 7 7 5 4 3 2 2 2 3 3 3 3
10 9 7 7 6 5 5 6 4 3 2 3 4 3 0 3 2 2 2 3 2 1 1 1 1 1 2 3 5 7 8 7 6 5 4 4 3 2 3 3 3 3 3
8 7 7 7 7 7 7 7 7 7 5 3 2 4 4 5 2 2 2 3 3 3 3 4 4 3 2 2 4 6 7 6 5 4 4 4 4 3 3 4 4 4 5
6 6 6 6 7 6 7 8 8 6 6 5 2 1 1 3 3 2 2 2 3 4 5 4 6 6 5 4 3 4 4 4 4 4 4 5 5 6 6 6 5 5 5
4 5 6 5 6 6 7 8 8 8 7 6 5 3 1 1 1 3 2 3 2 4 5 5 5 8 9 8 6 5 4 4 4 4 4 5 6 6 6 7 7 6 6
2 4 4 5 5 5 6 7 8 9 8 7 6 5 4 3 4 3 3 3 3 3 3 4 5 8 11 11 10 8 7 5 4 3 4 4 4 5 5 6 7 7 7
2 3 4 4 4 5 5 5 6 7 8 8 9 7 6 5 4 4 4 3 2 2 2 3 5 9 11 12 12 11 9 8 6 4 3 3 3 3 4 5 6 7 8
3 3 4 4 4 4 4 5 4 5 6 8 10 9 7 7 6 5 5 5 3 2 3 5 3 7 11 13 15 14 11 11 9 7 6 5 3 2 2 4 5 6 6
3 3 4 3 3 3 3 4 3 4 5 6 7 8 7 7 7 6 5 5 6 4 4 5 5 5 10 13 15 14 13 13 12 10 9 7 5 3 1 1 3 4 5
3 4 4 4 3 3 3 3 2 2 4 4 5 7 7 6 7 7 7 6 6 7 5 4 5 4 5 9 14 14 15 14 13 12 11 9 7 5 3 1 1 3 4
4 5 5 4 4 3 3 3 2 2 2 3 3 5 6 6 7 7 7 7 7 7 7 4 2 3 5 6 7 11 12 12 12 14 13 11 10 8 7 5 3 3 3
4 4 4 4 4 4 4 4 3 3 3 2 3 3 4 5 7 7 7 9 8 8 8 7 3 3 4 4 5 6 8 10 11 13 14 14 12 11 10 8 6 5 4
3 3 4 4 4 4 4 4 4 4 3 3 3 3 4 4 5 5 7 8 8 8 7 5 4 3 2 2 3 3 4 5 8 11 13 15 15 14 13 11 10 8 6
3 4 4 5 5 4 5 5 5 4 4 3 3 3 3 3 4 4 5 6 7 8 8 6 4 3 3 2 3 3 3 5 6 6 10 12 14 16 16 14 13 11 10
2 3 4 5 5 4 5 6 6 6 5 4 3 3 3 4 4 4 4 4 5 6 6 6 5 4 4 3 3 3 4 2 4 5 4 6 9 10 13 16 16 15 14
3 2 4 4 5 5 6 9 8 6 6 5 4 3 3 4 4 4 5 5 6 5 5 5 4 5 5 4 4 3 3 2 3 3 4 4 5 8 10 13 16 17 16
3 3 3 2 4 5 7 7 9 6 6 6 5 4 3 3 4 2 3 3 5 7 7 4 4 4 5 5 6 5 4 3 3 3 4 4 4 7 9 13 17 19 19
4 4 4 4 3 4 6 5 7 6 5 5 5 5 5 5 4 4 3 3 3 4 5 5 4 4 4 5 5 4 4 3 3 3 4 4 3 4 4 9 16 19 20
6 5 4 6 5 6 8 5 2 3 4 4 4 4 5 5 7 7 5 5 5 5 6 8 7 6 7 8 6 4 3 2 3 3 5 4 2 3 3 3 9 16 20
6 6 8 8 8 8 11 9 3 2 2 2 2 3 5 6 7 7 6 6 7 5 4 4 5 6 6 7 10 7 5 5 3 3 4 4 2 1 3 2 1 4 9
Wind_Direction
179 174 171 171 164 155 157 331 339 121 145 139 126 112 88 68 49 27 7 15 81 140 151 152 147 156 170 182 180 177 177 172 162 154 148 144 134 115 103 93 76 57 37
187 178 177 182 187 185 193 202 177 152 150 143 133 122 101 80 61 50 39 36 55 81 104 123 128 124 122 126 156 166 169 173 174 171 169 168 161 146 123 106 86 61 37
201 191 189 198 195 183 180 154 116 114 124 128 130 127 118 101 79 60 56 55 54 66 86 94 99 106 109 107 107 111 122 142 165 181 185 183 185 193 190 145 105 64 35
208 199 203 214 191 168 161 145 129 111 122 133 138 143 136 131 102 72 60 59 59 59 70 83 87 94 98 98 99 101 103 112 123 147 174 181 191 210 218 198 182 19 15
207 202 211 217 186 160 162 164 146 141 150 150 144 133 149 164 146 98 63 54 58 61 63 69 72 74 83 87 91 99 108 113 111 105 107 142 189 228 238 228 229 254 324
206 203 209 217 188 172 177 168 155 143 144 148 127 89 44 279 228 128 87 56 56 58 64 67 66 63 67 69 74 91 111 111 106 95 82 77 69 311 272 257 254 254 273
202 199 205 201 190 195 196 175 148 152 140 132 103 64 13 4 252 236 202 165 83 45 62 60 54 56 57 63 71 88 103 104 95 85 71 56 43 16 341 313 294 283 293
193 199 194 194 189 192 192 182 163 156 161 162 141 125 44 329 306 235 214 211 212 226 246 243 257 9 59 74 84 95 98 99 93 82 65 56 52 38 17 1 347 326 320
190 193 191 188 188 187 194 190 181 175 176 193 191 153 159 214 263 297 251 221 202 208 235 243 236 232 212 131 109 106 105 98 88 78 72 70 66 59 42 26 17 10 357
188 194 191 188 190 191 194 193 186 181 170 182 196 161 149 150 164 253 300 257 216 217 223 230 229 227 222 203 177 151 132 114 90 82 80 72 67 63 52 40 26 13 2
189 192 192 190 195 198 200 192 184 186 185 184 176 159 133 92 149 164 239 278 271 236 220 220 225 224 223 219 212 202 178 147 111 90 79 70 63 57 51 40 31 20 11
183 191 188 193 200 200 201 197 193 193 195 191 186 174 169 179 193 177 185 225 248 260 231 219 218 220 220 220 221 218 207 188 157 120 93 74 60 50 41 33 27 23 21
187 194 180 190 199 206 201 190 193 201 197 199 200 199 193 196 183 173 171 187 231 270 272 240 220 216 216 216 220 221 217 208 195 176 154 128 95 67 47 31 20 16 17
187 177 173 185 197 196 190 183 192 203 201 207 211 208 206 206 195 187 178 170 193 257 265 256 232 213 212 210 217 216 217 215 209 201 193 181 160 120 71 42 25 15 11
169 160 160 163 167 167 170 168 189 202 199 209 216 215 217 213 206 205 193 182 181 210 244 243 235 219 210 209 211 209 214 217 215 212 208 203 195 181 141 48 18 8 3
152 147 145 145 143 142 146 152 177 201 203 214 214 217 220 216 212 210 208 202 196 198 222 236 231 219 197 211 211 207 212 218 220 218 217 215 212 210 212 232 304 336 343
160 163 161 156 157 158 157 158 175 179 200 223 228 223 227 217 218 216 210 206 206 199 221 234 223 200 187 200 196 202 210 213 221 222 222 222 222 221 223 230 246 279 311
170 173 168 169 175 176 175 178 188 186 195 218 235 238 243 232 225 220 214 214 211 207 210 220 214 199 202 197 186 190 202 214 220 226 225 226 228 228 229 231 237 249 269
183 184 185 194 199 197 196 201 200 200 204 216 223 229 243 241 242 233 224 219 214 211 205 201 198 181 172 152 150 188 200 209 220 227 230 231 231 232 232 234 237 242 251
206 210 213 216 216 212 209 207 205 208 211 216 217 223 236 239 252 249 236 226 216 210 203 198 189 172 159 148 148 169 198 210 223 221 227 230 231 234 234 234 236 239 243
244 229 229 230 225 218 219 209 205 207 208 214 218 224 238 251 263 253 237 220 212 213 204 202 196 177 169 161 183 178 196 196 226 215 217 226 226 231 232 233 234 234 234
311 267 239 236 236 237 235 222 205 202 204 210 222 233 250 263 279 287 258 229 210 209 207 203 201 197 189 175 160 166 163 159 247 202 199 235 209 231 234 230 230 228 227
342 321 302 268 259 266 267 251 220 200 203 209 215 225 246 250 254 260 270 258 240 230 211 193 197 195 180 179 167 168 178 186 215 187 176 240 207 234 238 233 231 229 227
358 353 349 339 318 318 315 280 234 204 205 212 213 217 233 255 250 232 229 241 247 238 219 210 200 195 183 172 171 172 179 204 228 189 178 236 223 234 241 234 234 229 227
16 14 10 13 13 358 359 342 237 182 202 218 220 221 229 247 258 241 219 234 251 257 249 236 221 209 201 196 183 164 179 205 246 226 194 219 246 245 256 249 240 233 229
27 33 38 33 30 17 15 19 50 136 188 228 246 254 251 255 262 244 213 218 240 251 236 239 237 236 227 224 214 207 203 214 224 240 194 198 233 228 291 283 290 246 234
Height
1538 1539 1540 1542 1544 1545 1547 1548 1549 1550 1551 1552 1553 1553 1552 1552 1551 1551 1551 1552 1552 1552 1552 1553 1553 1554 1555 1555 1556 1557 1558 1559 1561 1562 1563 1564 1564 1564 1565 1565 1565 1565 1565
1538 1539 1540 1542 1544 1545 1547 1548 1549 1550 1551 1552 1553 1553 1553 1552 1551 1551 1551 1551 1552 1552 1552 1552 1553 1553 1554 1555 1556 1557 1557 1558 1560 1561 1562 1563 1563 1564 1564 1564 1564 1564 1564
1537 1539 1540 1542 1544 1545 1547 1548 1549 1550 1551 1551 1552 1553 1553 1553 1552 1552 1552 1552 1552 1552 1552 1552 1553 1553 1554 1554 1555 1556 1556 1557 1558 1559 1560 1561 1562 1563 1563 1563 1563 1563 1563
1537 1538 1540 1541 1543 1545 1546 1547 1548 1549 1550 1551 1552 1552 1552 1553 1553 1553 1552 1552 1552 1552 1552 1553 1553 1553 1553 1553 1554 1555 1555 1556 1557 1558 1559 1560 1560 1561 1561 1561 1561 1562 1562
1535 1536 1538 1540 1542 1544 1545 1546 1547 1549 1550 1550 1551 1551 1552 1552 1552 1553 1553 1552 1553 1553 1553 1553 1553 1553 1553 1553 1553 1554 1554 1555 1556 1557 1557 1558 1559 1559 1560 1560 1560 1560 1560
1532 1534 1536 1538 1540 1541 1543 1544 1546 1547 1549 1549 1550 1550 1551 1551 1552 1552 1552 1552 1552 1553 1553 1553 1553 1553 1553 1553 1553 1553 1554 1554 1555 1555 1556 1556 1557 1557 1558 1558 1559 1559 1559
1529 1530 1533 1535 1536 1538 1540 1541 1543 1545 1546 1548 1549 1549 1550 1550 1550 1551 1551 1551 1551 1552 1552 1553 1553 1553 1553 1553 1553 1553 1553 1554 1554 1555 1555 1555 1555 1556 1556 1557 1557 1557 1557
1526 1527 1529 1530 1532 1534 1536 1538 1539 1541 1543 1545 1546 1547 1548 1549 1548 1549 1549 1550 1550 1551 1552 1552 1552 1553 1553 1553 1553 1553 1553 1554 1554 1554 1554 1554 1554 1554 1554 1555 1555 1555 1556
1523 1524 1525 1527 1528 1530 1532 1533 1535 1537 1539 1541 1543 1545 1545 1544 1545 1546 1547 1548 1549 1550 1551 1551 1552 1552 1552 1552 1552 1553 1553 1553 1554 1554 1554 1553 1553 1553 1553 1553 1554 1554 1554
1520 1521 1522 1523 1524 1526 1527 1528 1530 1532 1534 1536 1538 1540 1542 1542 1543 1543 1544 1545 1546 1547 1549 1550 1551 1551 1552 1552 1552 1552 1552 1553 1553 1553 1553 1553 1553 1553 1553 1553 1553 1553 1552
1517 1518 1519 1520 1521 1522 1523 1524 1525 1527 1528 1531 1533 1535 1537 1539 1540 1541 1541 1542 1543 1545 1546 1548 1549 1550 1550 1551 1551 1551 1551 1552 1552 1552 1552 1552 1552 1552 1552 1552 1551 1551 1551
1514 1515 1516 1517 1518 1518 1519 1520 1521 1522 1523 1525 1527 1529 1531 1533 1535 1537 1538 1539 1540 1542 1543 1545 1546 1547 1548 1549 1549 1550 1550 1550 1550 1551 1551 1551 1551 1551 1550 1550 1550 1549 1549
1512 1512 1513 1514 1515 1515 1515 1516 1516 1517 1519 1520 1521 1523 1525 1527 1530 1533 1535 1536 1537 1539 1540 1541 1543 1544 1545 1547 1547 1548 1548 1548 1549 1549 1549 1550 1549 1549 1549 1548 1548 1547 1547
1510 1510 1511 1512 1512 1512 1512 1512 1513 1514 1514 1515 1517 1518 1520 1522 1524 1527 1530 1532 1533 1535 1536 1537 1539 1540 1542 1544 1545 1546 1546 1546 1547 1547 1547 1548 1548 1547 1547 1546 1545 1545 1544
1508 1509 1509 1509 1509 1509 1509 1509 1510 1510 1510 1511 1512 1514 1515 1517 1518 1521 1524 1527 1530 1530 1531 1533 1535 1537 1539 1540 1542 1543 1544 1544 1545 1545 1545 1546 1546 1545 1545 1544 1543 1542 1542
1507 1507 1508 1507 1507 1507 1507 1507 1507 1507 1507 1508 1508 1509 1510 1512 1513 1515 1518 1520 1523 1526 1526 1528 1531 1533 1535 1537 1538 1540 1541 1542 1542 1543 1543 1544 1544 1543 1543 1542 1541 1540 1540
1505 1506 1506 1506 1506 1506 1506 1506 1506 1505 1505 1505 1505 1506 1506 1507 1508 1510 1512 1514 1517 1519 1521 1523 1526 1528 1530 1532 1534 1536 1537 1538 1539 1540 1541 1541 1541 1541 1541 1540 1539 1538 1538
1504 1504 1505 1505 1505 1505 1505 1505 1505 1504 1504 1503 1503 1503 1503 1503 1504 1505 1506 1507 1510 1513 1515 1517 1520 1523 1525 1527 1529 1531 1533 1535 1536 1537 1538 1538 1538 1538 1538 1538 1537 1537 1536
1502 1503 1504 1504 1504 1504 1504 1504 1504 1503 1502 1502 1501 1501 1500 1500 1500 1501 1501 1502 1504 1507 1509 1512 1514 1517 1519 1522 1524 1526 1528 1530 1532 1533 1534 1534 1535 1535 1535 1535 1535 1534 1534
1501 1501 1502 1502 1503 1503 1503 1503 1502 1502 1501 1501 1500 1499 1498 1498 1497 1497 1498 1498 1500 1502 1503 1506 1508 1510 1513 1516 1519 1521 1523 1526 1527 1529 1530 1530 1531 1531 1531 1531 1531 1531 1531
1498 1499 1500 1500 1500 1501 1501 1501 1501 1500 1500 1500 1499 1498 1497 1497 1496 1495 1495 1495 1496 1497 1499 1501 1503 1505 1507 1510 1513 1516 1518 1521 1522 1524 1525 1526 1526 1527 1527 1527 1527 1527 1527
1496 1496 1496 1497 1497 1498 1499 1499 1499 1498 1498 1498 1498 1498 1497 1496 1495 1494 1494 1494 1494 1495 1495 1497 1498 1499 1501 1505 1508 1511 1514 1516 1518 1520 1520 1521 1521 1521 1522 1522 1522 1522 1522
1492 1493 1493 1493 1494 1495 1495 1495 1495 1496 1496 1496 1496 1496 1496 1496 1495 1494 1493 1493 1493 1493 1494 1495 1495 1496 1498 1500 1503 1506 1509 1511 1513 1514 1515 1515 1516 1516 1517 1517 1517 1517 1517
1489 1489 1489 1489 1490 1490 1491 1491 1492 1492 1493 1493 1494 1494 1494 1494 1494 1493 1493 1493 1493 1492 1493 1493 1494 1494 1496 1497 1499 1501 1503 1506 1508 1510 1511 1510 1511 1511 1512 1511 1512 1512 1513
1487 1487 1486 1486 1486 1487 1487 1488 1488 1489 1490 1490 1491 1491 1492 1492 1492 1492 1492 1492 1492 1492 1492 1492 1493 1494 1495 1496 1497 1499 1501 1503 1503 1505 1506 1506 1506 1506 1506 1506 1506 1507 1508
1487 1487 1486 1485 1485 1484 1484 1484 1485 1485 1486 1487 1488 1488 1489 1490 1490 1490 1490 1491 1491 1491 1491 1491 1492 1492 1493 1494 1495 1497 1498 1500 1500 1501 1501 1502 1502 1502 1501 1501 1501 1502 1503